CW2882 Weather Reports


Display with metric or nautical units.
time (UTC)temp
F
wind
direction
speed
MPH
gust
MPH
rain 1hr
in
rain 24hr
in
rain mn
in
humidity
%
barometer
mb
20260904060021 54 177 1.0 2.0 0.00 0.03 0.03 89 1011.1
20260904054536 55 175 1.0 3.0 0.00 0.03 0.03 85 1011.0
20260904053034 56 187 0.0 0.0 0.00 0.03 0.03 82 1010.9
20260904051522 56 129 0.0 3.0 0.00 0.03 0.03 82 1011.0
20260904050030 56 147 0.0 2.0 0.00 0.03 0.03 82 1010.9
20260904044516 55 139 0.0 1.0 0.00 0.03 0.03 83 1010.9
20260904043029 56 143 0.0 0.0 0.00 0.03 0.03 82 1010.8
20260904041516 57 143 0.0 0.0 0.00 0.03 0.03 82 1010.8
20260904040014 57 150 0.0 0.0 0.00 0.03 0.03 81 1010.8
20260904034512 57 150 0.0 0.0 0.00 0.03 0.03 81 1010.8
20260904033021 58 150 0.0 0.0 0.00 0.03 0.03 81 1010.7
20260904031509 59 160 0.0 0.0 0.00 0.03 0.03 79 1010.5
20260904030008 60 226 0.0 1.0 0.00 0.03 0.03 76 1010.4
20260904024508 61 226 0.0 0.0 0.00 0.03 0.03 75 1010.3
20260904023007 63 226 0.0 1.0 0.00 0.03 0.03 72 1010.2
20260904021513 65 237 0.0 2.0 0.00 0.03 0.03 70 1010.1
20260904020004 64 243 0.0 3.0 0.00 0.03 0.03 71 1010.1
20260904014504 66 233 0.0 1.0 0.00 0.03 0.03 68 1010.1
20260904013004 66 236 0.0 2.0 0.00 0.03 0.03 69 1010.0
20260904011503 65 226 0.0 4.0 0.00 0.03 0.03 69 1010.0
20260904010005 65 200 2.0 4.0 0.00 0.09 0.03 68 1010.0
20260904004502 64 240 2.0 7.0 0.00 0.09 0.03 70 1010.0
20260904003002 65 252 1.0 6.0 0.00 0.09 0.03 70 1010.0
20260904001500 66 150 1.0 5.0 0.00 0.09 0.03 68 1009.9
20260904000100 65 262 3.0 8.0 0.00 0.13 0.03 68 1009.9
20260903234600 67 247 1.0 6.0 0.00 0.13 0.03 66 1009.9
20260903233103 67 160 1.0 6.0 0.00 0.13 0.03 62 1009.8
20260903231559 67 214 3.0 7.0 0.00 0.13 0.03 61 1009.9
20260903224556 67 238 3.0 11.0 0.00 0.13 0.03 61 1010.1
20260903223107 67 148 2.0 9.0 0.00 0.13 0.03 61 1010.2
20260903221554 67 254 3.0 10.0 0.00 0.13 0.03 62 1010.2
20260903220053 68 124 4.0 8.0 0.00 0.13 0.03 61 1010.2
20260903214553 67 226 4.0 9.0 0.00 0.13 0.03 61 1010.2
20260903213051 67 110 2.0 9.0 0.00 0.13 0.03 64 1010.3
20260903211604 66 155 1.0 8.0 0.00 0.13 0.03 64 1010.2
20260903210049 66 148 1.0 10.0 0.00 0.13 0.03 65 1010.1
20260903204553 67 200 1.0 6.0 0.00 0.13 0.03 67 1010.1
20260903203044 66 80 4.0 9.0 0.00 0.13 0.03 67 1010.0
20260903201547 66 236 0.0 8.0 0.00 0.13 0.03 67 1009.9
20260903200044 66 133 4.0 12.0 0.00 0.13 0.03 67 1010.1
20260903194540 65 84 2.0 7.0 0.00 0.13 0.03 70 1010.0
20260903193037 64 134 2.0 10.0 0.00 0.13 0.03 69 1009.9
20260903191537 63 46 1.0 9.0 0.00 0.13 0.03 70 1009.8
20260903190037 64 133 4.0 11.0 0.00 0.13 0.03 70 1009.9
20260903184540 64 29 2.0 9.0 0.00 0.13 0.03 72 1009.9
20260903183034 63 82 6.0 18.0 0.00 0.13 0.03 71 1009.7
20260903181532 64 97 3.0 9.0 0.00 0.13 0.03 74 1009.7
20260903180028 63 87 2.0 9.0 0.00 0.13 0.03 75 1009.4
20260903174534 62 176 3.0 12.0 0.00 0.13 0.03 76 1009.3
20260903173034 61 94 4.0 14.0 0.00 0.13 0.03 79 1009.1
20260903171521 60 174 5.0 15.0 0.00 0.13 0.03 80 1009.1
20260903170028 60 158 5.0 12.0 0.00 0.13 0.03 81 1009.0
20260903164518 59 116 4.0 11.0 0.00 0.13 0.03 82 1009.0
20260903163017 58 122 2.0 9.0 0.00 0.13 0.03 85 1009.0
20260903161513 57 87 3.0 7.0 0.00 0.13 0.03 87 1009.0
20260903160011 57 133 3.0 7.0 0.00 0.13 0.03 89 1008.9
20260903154511 56 159 2.0 9.0 0.00 0.13 0.03 89 1008.7
20260903153009 56 136 3.0 7.0 0.00 0.13 0.03 90 1008.8
20260903151510 55 164 0.0 6.0 0.00 0.13 0.03 90 1008.8
20260903150010 55 87 2.0 6.0 0.01 0.13 0.03 91 1008.8
20260903144508 55 106 3.0 8.0 0.02 0.13 0.03 91 1008.6
20260903143005 55 114 2.0 8.0 0.03 0.13 0.03 92 1008.5
20260903141502 55 77 2.0 6.0 0.03 0.13 0.03 92 1008.4
20260903140100 55 150 3.0 9.0 0.02 0.12 0.02 91 1008.4
20260903134608 55 110 3.0 9.0 0.01 0.11 0.01 90 1008.3
20260903133106 56 124 3.0 13.0 0.00 0.10 0.00 89 1008.1
20260903131551 56 161 2.0 7.0 0.00 0.10 0.00 88 1007.9
20260903130106 57 137 3.0 8.0 0.00 0.10 0.00 85 1007.6
20260903124555 57 148 3.0 9.0 0.00 0.10 0.00 83 1007.5
20260903123047 58 131 3.0 10.0 0.00 0.10 0.00 81 1007.5
20260903121542 58 142 3.0 12.0 0.00 0.10 0.00 81 1007.2
20260903120039 58 105 4.0 15.0 0.00 0.10 0.00 81 1007.1
20260903114538 58 103 2.0 12.0 0.00 0.10 0.00 81 1006.9
20260903113035 58 269 4.0 13.0 0.00 0.10 0.00 81 1006.8
20260903111536 58 214 2.0 10.0 0.00 0.10 0.00 81 1006.9
20260903110034 58 155 3.0 16.0 0.00 0.10 0.00 81 1006.7
20260903104531 58 34 2.0 10.0 0.00 0.10 0.00 82 1006.8
20260903103030 57 115 4.0 11.0 0.00 0.10 0.00 82 1006.8
20260903101529 58 156 6.0 13.0 0.00 0.10 0.00 82 1006.7
20260903100027 58 82 5.0 16.0 0.00 0.10 0.00 81 1006.6
20260903094532 58 129 5.0 15.0 0.00 0.10 0.00 82 1006.7
20260903093023 58 162 4.0 11.0 0.00 0.10 0.00 82 1006.6
20260903091524 58 114 5.0 12.0 0.00 0.10 0.00 82 1006.5
20260903090022 58 99 5.0 13.0 0.00 0.10 0.00 82 1006.4
20260903084519 58 129 3.0 10.0 0.00 0.10 0.00 83 1006.4
20260903083016 58 124 5.0 11.0 0.00 0.10 0.00 84 1006.4
20260903081515 58 155 2.0 10.0 0.00 0.10 0.00 85 1006.4
20260903080014 58 162 1.0 7.0 0.00 0.10 0.00 85 1006.5
20260903074513 57 93 1.0 8.0 0.00 0.10 0.00 85 1006.5
20260903073017 58 105 2.0 9.0 0.00 0.10 0.00 85 1006.7
20260903071510 58 210 2.0 8.0 0.00 0.10 0.00 86 1006.5
20260903070009 58 129 3.0 9.0 0.00 0.10 0.10 86 1006.4
20260903064508 58 129 3.0 11.0 0.00 0.10 0.10 86 1006.4
20260903063006 58 104 4.0 11.0 0.00 0.10 0.10 86 1006.2
20260903061508 58 89 6.0 15.0 0.00 0.10 0.10 86 1006.1